Salt Lake City, UT

1:06 AM MST on November 20, 2017 (GMT -0700)
Salt Lake City International

Weather History for KSLC - December, 2013

Change the Weather History Date:

Saturday, December 7, 2013

  Actual Average Record
Temperature  
Mean Temperature 24 °F 32 °F  
Max Temperature 30 °F 39 °F 60 °F (1939)
Min Temperature 17 °F 24 °F 1 °F (1951)
Degree Days  
Heating Degree Days 41 34  
Month to date heating degree days 251 229  
Since 1 July heating degree days 1298 1447  
Cooling Degree Days 0 0  
Month to date cooling degree days 0 0  
Year to date cooling degree days 1768 1160  
Moisture  
Dew Point 16 °F    
Average Humidity 65    
Maximum Humidity 75    
Minimum Humidity 55    
Precipitation  
Precipitation 0.01 in 0.04 in 1.10 in (2007)
Month to date precipitation 0.41 0.33  
Year to date precipitation 10.38 15.02  
Snow  
Snow 0.20 in 0.40 in 4.50 in (1994)
Month to date snowfall 6.2 2.8  
Since 1 July snowfall 9.7 11.8  
Snow Depth 2.00 in    
Sea Level Pressure  
Sea Level Pressure 29.79 in    
Wind  
Wind Speed 11 mph (North)    
Max Wind Speed 17 mph    
Max Gust Speed 22 mph    
Visibility 5 miles    
Events Snow    
T = Trace of Precipitation, MM = Missing Value Source: NWS Daily Summary

Daily Weather History Graph

Daily Weather History Graph

Search for Another Location

Airport or City:

Trip Planner

Search our weather history database for the weather conditions in past years. The results will help you decide how hot, cold, wet, or windy it might be!

Date:

Astronomy

Dec. 07, 2013 Rise Set
Actual Time 7:38 AM MST 5:00 PM MST
Civil Twilight 7:08 AM MST 5:30 PM MST
Nautical Twilight 6:33 AM MST 6:05 PM MST
Astronomical Twilight 6:00 AM MST 6:38 PM MST
Moon 11:24 AM MST (12/7) 10:47 PM MST (12/7)
Length of Visible Light 10h 22m
Length of Day
9h 21m
Waxing Crescent, 30% of the Moon is Illuminated
Dec 7
Waxing Crescent
Dec 9
First Quarter
Dec 17
Full
Dec 25
Last Quarter
Jan 1
New

Hourly Weather History & Observations

Time (MST) Temp. Windchill Dew Point Humidity Pressure Visibility Wind Dir Wind Speed Gust Speed Precip Events Conditions
12:53 AM 18.0 °F 6.9 °F 5.0 °F 57% 30.02 in 10.0 mi SE 9.2 mph - N/A   Mostly Cloudy
1:53 AM 18.0 °F 6.9 °F 5.0 °F 57% 29.98 in 10.0 mi SE 9.2 mph - N/A   Mostly Cloudy
2:53 AM 19.9 °F 6.7 °F 6.1 °F 55% 29.94 in 10.0 mi SE 13.8 mph - N/A   Mostly Cloudy
3:53 AM 19.9 °F 13.4 °F 8.1 °F 60% 29.89 in 10.0 mi SE 4.6 mph - N/A   Scattered Clouds
4:53 AM 21.0 °F 9.3 °F 12.0 °F 68% 29.85 in 10.0 mi SE 11.5 mph - N/A   Scattered Clouds
5:53 AM 24.1 °F 13.7 °F 12.0 °F 60% 29.83 in 10.0 mi SE 10.4 mph - N/A   Mostly Cloudy
6:53 AM 25.0 °F 14.2 °F 12.9 °F 60% 29.82 in 10.0 mi SE 11.5 mph - N/A   Overcast
7:53 AM 26.1 °F 16.2 °F 12.9 °F 58% 29.79 in 10.0 mi SE 10.4 mph - N/A   Overcast
8:53 AM 26.1 °F 15.0 °F 17.1 °F 69% 29.80 in 4.0 mi South 12.7 mph - 0.00 in Snow Light Snow
9:00 AM 26.6 °F 14.3 °F 17.6 °F 69% 29.71 in 2.5 mi South 16.1 mph - 0.00 in Snow Light Snow
9:22 AM 26.6 °F 16.8 °F 19.4 °F 74% 29.71 in 2.0 mi SSE 10.4 mph - 0.00 in Snow Light Snow
9:50 AM 26.6 °F 17.5 °F 19.4 °F 74% 29.71 in 2.0 mi SE 9.2 mph - 0.00 in Snow Light Snow
9:53 AM 26.1 °F 16.8 °F 19.9 °F 78% 29.80 in 2.0 mi SSE 9.2 mph - 0.00 in Snow Light Snow
10:20 AM 26.6 °F 15.7 °F 19.4 °F 74% 29.71 in 2.0 mi SSE 12.7 mph - 0.00 in Snow Light Snow
10:53 AM 27.0 °F 18.0 °F 19.9 °F 75% 29.78 in 2.0 mi SE 9.2 mph - 0.01 in   Overcast
11:53 AM 28.0 °F 16.5 °F 19.9 °F 72% 29.75 in 7.0 mi South 15.0 mph - 0.00 in   Overcast
12:53 PM 28.0 °F 18.6 °F 19.9 °F 72% 29.73 in 7.0 mi South 10.4 mph - N/A   Overcast
1:53 PM 28.0 °F 17.0 °F 19.9 °F 72% 29.71 in 7.0 mi SSE 13.8 mph - N/A   Overcast
2:53 PM 28.9 °F 20.4 °F 21.0 °F 72% 29.70 in 8.0 mi SE 9.2 mph - N/A   Overcast
3:53 PM 28.9 °F 21.1 °F 21.0 °F 72% 29.70 in 3.0 mi SE 8.1 mph - N/A   Overcast
4:53 PM 28.9 °F 23.9 °F 21.0 °F 72% 29.71 in 9.0 mi SE 4.6 mph - 0.00 in   Overcast
5:30 PM 28.4 °F 24.6 °F 21.2 °F 74% 29.66 in 10.0 mi West 3.5 mph - 0.00 in   Overcast
5:40 PM 28.4 °F 20.4 °F 21.2 °F 74% 29.67 in 2.0 mi West 8.1 mph - 0.00 in Snow Light Snow
5:44 PM 28.4 °F 21.2 °F 21.2 °F 74% 29.67 in 1.0 mi West 6.9 mph - 0.00 in Snow Light Snow
5:53 PM 27.0 °F 15.2 °F 21.0 °F 78% 29.74 in 0.8 mi NNW 15.0 mph 19.6 mph 0.00 in Snow Light Snow
6:05 PM 24.8 °F 12.4 °F 19.4 °F 80% 29.69 in 1.0 mi NNW 15.0 mph - 0.01 in Snow Light Snow
6:19 PM 24.8 °F 12.4 °F 19.4 °F 80% 29.69 in 1.5 mi NNW 15.0 mph - 0.01 in Snow Light Snow
6:34 PM 24.8 °F 12.9 °F 19.4 °F 80% 29.70 in 1.2 mi NNW 13.8 mph - 0.02 in Snow Light Snow
6:44 PM 24.8 °F 12.4 °F 19.4 °F 80% 29.71 in 3.0 mi NNW 15.0 mph - 0.02 in Snow Light Snow
6:53 PM 23.0 °F 11.7 °F 18.0 °F 81% 29.79 in 4.0 mi North 11.5 mph - 0.02 in Snow Light Snow
7:19 PM 23.0 °F 9.6 °F 17.6 °F 80% 29.73 in 2.5 mi North 16.1 mph - 0.00 in Snow Light Snow
7:36 PM 23.0 °F 11.1 °F 17.6 °F 80% 29.75 in 1.8 mi North 12.7 mph - 0.00 in Snow Light Snow
7:46 PM 24.8 °F 14.0 °F 17.6 °F 74% 29.75 in 2.0 mi North 11.5 mph - 0.00 in Snow Light Snow
7:53 PM 24.1 °F 13.1 °F 18.0 °F 77% 29.83 in 2.5 mi NNW 11.5 mph - 0.00 in Snow Light Snow
8:00 PM 24.8 °F 14.6 °F 17.6 °F 74% 29.76 in 3.0 mi NNW 10.4 mph - 0.00 in Snow Light Snow
8:23 PM 24.8 °F 16.9 °F 17.6 °F 74% 29.77 in 1.8 mi NNW 6.9 mph - 0.00 in Snow Light Snow
8:35 PM 24.8 °F 15.3 °F 17.6 °F 74% 29.78 in 1.0 mi NW 9.2 mph - 0.01 in Snow Light Snow
8:53 PM 24.1 °F 15.2 °F 18.0 °F 77% 29.86 in 1.0 mi NNW 8.1 mph - 0.02 in Snow Light Snow
9:12 PM 23.0 °F 10.6 °F 17.6 °F 80% 29.79 in 1.5 mi North 13.8 mph - 0.00 in Snow Light Snow
9:44 PM 21.2 °F 8.9 °F 15.8 °F 80% 29.80 in 1.8 mi NW 12.7 mph - 0.00 in Snow Light Snow
9:53 PM 21.0 °F 9.3 °F 15.1 °F 78% 29.88 in 2.5 mi NW 11.5 mph - 0.00 in Snow Light Snow
10:07 PM 21.2 °F 9.5 °F 14.0 °F 74% 29.82 in 3.0 mi NNW 11.5 mph - 0.00 in Snow Light Snow
10:28 PM 21.2 °F 10.9 °F 12.2 °F 68% 29.83 in 5.0 mi NNW 9.2 mph - 0.00 in Snow Light Snow
10:46 PM 19.4 °F 7.2 °F 14.0 °F 80% 29.83 in 2.5 mi NNW 11.5 mph - 0.00 in Snow Light Snow
10:53 PM 19.9 °F 6.2 °F 12.9 °F 74% 29.91 in 2.0 mi NNW 15.0 mph - 0.00 in Snow Light Snow
11:53 PM 19.9 °F 9.3 °F 12.9 °F 74% 29.93 in 2.0 mi NNW 9.2 mph - 0.01 in Snow Light Snow